DateTimeUTC,F1_A11,F1_S11,BsB_S11,BsG_S11,BsR_S11,BbsB_S11,BbsG_S11,BbsR_S11,BaB_A11,BaG_A11,BaR_A11,Tu_S11,T_S11,Uu_S11,U_S11,P_S11,T1_A11
2021-05-07T05:00:00Z,00000200,21000000,,,,,,,0000.22,0000.02,0000.15,17.2,24.3,00.3,00.2,0673.1,31.0
2021-05-07T05:01:00Z,00000200,21000000,,,,,,,0000.44,0000.20,0000.12,17.3,24.3,00.3,00.2,0673.1,31.0
2021-05-07T05:02:00Z,00000200,21000000,,,,,,,0000.06,0000.08,0000.39,17.3,24.4,00.3,00.2,0673.1,31.0
2021-05-07T05:03:00Z,00000200,61000000,,,,,,,0000.68,0000.55,0000.33,17.3,24.4,00.3,00.2,0673.1,31.0
2021-05-07T05:04:00Z,00000200,41000000,0001.80,0000.99,0000.57,0000.31,0000.27,0000.01,0000.46,0000.71,0000.32,17.7,24.3,00.4,00.3,0674.1,31.1
2021-05-07T05:05:00Z,00000200,01000000,0001.69,0001.07,0000.70,0000.85,0000.20,-000.05,0001.08,0000.62,0000.87,17.8,24.3,00.4,00.2,0674.2,31.0
2021-05-07T05:06:00Z,00000200,01000000,0001.38,0000.83,0000.53,0000.97,0000.14,0000.05,0000.45,0000.74,0000.00,17.9,24.3,00.5,00.3,0674.1,31.0
2021-05-07T05:07:00Z,00000200,01000000,0001.99,0001.05,0000.81,0000.90,0000.39,0000.08,0000.64,0000.57,0000.49,17.9,24.3,00.4,00.3,0674.1,31.0
2021-05-07T05:08:00Z,00000200,01000000,0000.99,0000.80,0000.74,0000.48,0000.02,0000.07,0001.08,0000.41,0000.38,17.8,24.3,00.5,00.3,0674.1,31.0
2021-05-07T05:09:00Z,00000200,01000000,0001.55,0000.56,0000.84,0000.08,0000.31,0000.32,0000.62,0001.01,0000.46,17.8,24.3,00.5,00.3,0674.1,31.0
2021-05-07T05:10:00Z,00000200,01000000,0000.56,0000.78,0000.40,0000.29,0000.35,0000.18,0000.81,0000.43,0000.67,17.9,24.3,00.5,00.3,0674.1,31.0
2021-05-07T05:11:00Z,00000200,01000000,0001.05,0000.79,0000.65,-000.10,0000.04,-000.23,0000.54,0000.66,0000.49,17.9,24.4,00.5,00.3,0674.1,31.0
2021-05-07T05:12:00Z,00000200,01000000,0002.02,0000.79,0000.38,0000.97,0000.29,-000.10,0000.43,0000.47,0000.08,17.9,24.4,00.6,00.4,0674.1,31.0
2021-05-07T05:13:00Z,00000200,01000000,0001.81,0000.57,0000.67,0000.64,0000.04,0000.07,0000.73,0000.58,0000.67,18.0,24.4,00.6,00.4,0674.1,31.0
2021-05-07T05:14:00Z,00000200,01000000,0001.15,0000.70,0000.97,0000.81,-000.03,0000.31,0001.04,0000.45,0000.32,18.0,24.4,00.6,00.4,0674.1,31.1
2021-05-07T05:15:00Z,00000200,01000000,0000.78,0000.76,0000.39,0000.26,0000.22,0000.15,0000.25,0000.82,0000.37,18.0,24.4,00.7,00.4,0674.1,31.0
2021-05-07T05:16:00Z,00000200,01000000,0001.05,0000.89,0000.43,0000.17,0000.41,-000.28,0000.43,0000.30,0000.08,18.0,24.4,00.6,00.4,0674.1,31.0
2021-05-07T05:17:00Z,00000200,01000000,0001.30,0000.97,0000.52,0000.28,0000.17,0000.02,0000.50,0000.35,0000.53,17.9,24.4,00.7,00.5,0674.1,31.0
2021-05-07T05:18:00Z,00000200,01000000,0001.09,0000.99,0000.61,0000.65,0000.30,-000.16,0000.65,0000.59,0000.33,17.9,24.4,00.6,00.4,0674.1,31.0
2021-05-07T05:19:00Z,00000200,01000000,0001.51,0000.79,0000.22,0000.55,0000.24,-000.17,0000.66,0000.54,0000.38,17.8,24.3,00.6,00.4,0674.1,31.0
2021-05-07T05:20:00Z,00000200,01000000,0001.64,0001.01,0000.65,0000.70,0000.10,0000.26,0000.72,0000.79,0000.28,17.8,24.3,00.7,00.5,0674.1,31.0
2021-05-07T05:21:00Z,00000200,01000000,0001.26,0000.82,0000.45,0000.70,-000.03,0000.01,0000.31,0000.40,0000.45,17.7,24.3,00.6,00.4,0674.1,31.0
2021-05-07T05:22:00Z,00000200,01000000,0001.47,0000.52,0000.60,0000.15,0000.27,0000.05,0000.89,0000.23,0000.45,17.7,24.3,00.7,00.4,0674.1,31.0
2021-05-07T05:23:00Z,00000200,01000000,0000.83,0000.68,0000.70,0000.53,0000.36,0000.23,0001.01,0001.40,0000.54,17.6,24.2,00.7,00.5,0674.1,30.9
2021-05-07T05:24:00Z,00000200,01000000,0000.37,0000.87,0000.49,0000.83,0000.18,0000.22,0000.26,0000.21,0000.37,17.6,24.2,00.7,00.5,0674.1,31.0
2021-05-07T05:25:00Z,00000200,01000000,0001.25,0001.08,0000.46,0000.48,-000.06,0000.32,0000.84,0000.42,0000.32,17.7,24.2,00.7,00.5,0674.1,31.0
2021-05-07T05:26:00Z,00000200,01000000,0001.67,0000.76,0000.67,0000.39,0000.30,0000.27,0000.52,0000.64,0000.35,17.7,24.2,00.7,00.5,0674.1,31.0
2021-05-07T05:27:00Z,00000200,01000000,0001.00,0000.56,0000.50,0000.04,0000.31,0000.16,0000.55,0000.31,0000.37,17.8,24.2,00.9,00.6,0674.1,31.0
2021-05-07T05:28:00Z,00000200,01000000,0001.77,0000.92,0000.66,0000.45,0000.21,0000.10,0000.59,0000.73,0000.26,17.8,24.3,00.9,00.6,0674.1,31.0
2021-05-07T05:29:00Z,00000200,01000000,0001.46,0000.74,0000.34,-000.10,0000.12,-000.22,0000.69,0000.60,0000.31,17.7,24.2,00.8,00.6,0674.1,31.0
2021-05-07T05:30:00Z,00000200,01000000,0001.06,0000.56,0000.18,0000.04,0000.45,-000.03,0000.45,0000.36,0000.39,17.7,24.2,00.9,00.6,0674.1,31.0
2021-05-07T05:31:00Z,00000200,01000000,0001.34,0000.56,0000.41,0000.07,0000.15,0000.05,0000.64,0000.48,0000.36,17.6,24.2,00.8,00.5,0674.1,31.0
2021-05-07T05:32:00Z,00000200,01000000,0000.89,0000.84,0000.43,-000.07,0000.35,-000.14,0000.40,0000.42,0000.64,17.6,24.2,01.0,00.7,0674.1,31.0
2021-05-07T05:33:00Z,00000200,01000000,0001.90,0000.61,0000.61,0000.94,0000.22,0000.11,0000.95,0000.64,0000.18,17.6,24.1,00.9,00.6,0674.1,31.0
2021-05-07T05:34:00Z,00000200,01000000,0001.53,0001.00,0000.46,0000.82,0000.03,-000.17,0000.26,0000.42,0000.33,17.5,24.1,00.9,00.6,0674.1,30.9
2021-05-07T05:35:00Z,00000200,01000000,0000.70,0001.01,0000.34,0000.43,0000.07,0000.12,0000.79,0000.90,0000.52,17.5,24.1,00.9,00.6,0674.0,30.9
2021-05-07T05:36:00Z,00000200,01000000,0001.92,0000.64,0000.67,0000.51,0000.04,0000.42,0000.69,0000.10,0000.70,17.4,24.0,01.0,00.7,0674.0,30.9
2021-05-07T05:37:00Z,00000200,01000000,0001.41,0001.14,0000.48,0000.50,0000.15,0000.19,0000.13,0000.54,-000.06,17.4,24.0,00.9,00.6,0674.0,30.9
2021-05-07T05:38:00Z,00000200,01000000,0002.14,0001.04,0000.44,0000.62,0000.17,0000.07,0000.90,0000.74,0000.29,17.3,24.0,00.9,00.6,0674.0,30.9
2021-05-07T05:39:00Z,00000200,01000000,0001.57,0001.26,0000.52,0000.57,0000.36,-000.10,0001.04,0000.76,0000.83,17.3,24.0,00.9,00.6,0674.0,30.9
2021-05-07T05:40:00Z,00000200,01000000,0002.07,0000.94,0000.38,0000.96,0000.30,-000.03,0000.20,0000.80,0000.31,17.4,24.0,00.9,00.6,0674.0,30.9
2021-05-07T05:41:00Z,00000200,01000000,0001.48,0000.98,0000.82,0000.25,0000.03,0000.38,0001.13,0000.44,0000.40,17.4,24.0,01.0,00.7,0673.9,31.0
2021-05-07T05:42:00Z,00000200,01000000,0001.71,0001.14,0000.68,0000.62,0000.22,0000.05,0000.80,0000.90,0000.67,17.5,24.0,01.1,00.7,0674.0,31.0
2021-05-07T05:43:00Z,00000200,01000000,0001.81,0001.24,0000.55,0000.46,0000.10,0000.04,0000.46,0000.23,0000.51,17.5,24.0,01.0,00.7,0673.9,31.0
2021-05-07T05:44:00Z,00000200,01000000,0001.81,0001.34,0000.58,0000.53,0000.08,-000.30,0001.21,0000.87,0000.33,17.6,24.1,01.1,00.7,0673.9,31.0
2021-05-07T05:45:00Z,00000200,01000000,0001.27,0001.21,0000.67,0000.94,0000.33,0000.25,0000.64,0000.62,0000.54,17.6,24.1,01.1,00.7,0673.9,31.0
2021-05-07T05:46:00Z,00000200,01000000,0001.19,0001.21,0000.84,0001.04,0000.17,0000.21,0000.30,0000.73,0000.34,17.7,24.1,01.1,00.8,0673.9,31.0
2021-05-07T05:47:00Z,00000200,01000000,0001.79,0001.31,0000.68,0000.87,0000.08,-000.07,0001.09,0000.35,0000.29,17.8,24.2,01.1,00.7,0673.9,31.0
2021-05-07T05:48:00Z,00000200,01000000,0001.34,0001.15,0000.87,0000.59,0000.22,0000.06,0000.47,0000.82,0000.81,17.8,24.2,01.1,00.7,0673.9,31.0
2021-05-07T05:49:00Z,00000200,01000000,0001.24,0001.04,0000.66,0000.56,0000.34,0000.09,0000.62,0000.40,0000.05,17.8,24.2,01.1,00.7,0673.9,31.0
2021-05-07T05:50:00Z,00000200,01000000,0001.29,0001.16,0000.64,0000.71,0000.26,0000.11,0002.66,0002.34,0002.34,17.7,24.2,01.0,00.7,0673.9,31.0
2021-05-07T05:51:00Z,00000200,01000000,0001.83,0001.26,0000.85,0000.39,0000.45,0000.17,0000.84,0000.96,0000.42,17.7,24.1,01.0,00.7,0674.0,31.0
2021-05-07T05:52:00Z,00000200,01000000,0001.22,0000.98,0000.74,0000.66,0000.30,0000.07,0000.54,0000.47,0000.30,17.6,24.1,01.0,00.7,0674.0,31.0
2021-05-07T05:53:00Z,00000200,01000000,0001.24,0001.00,0000.42,0000.53,0000.13,0000.08,0000.50,0000.45,0000.51,17.6,24.1,01.1,00.7,0674.0,31.0
2021-05-07T05:54:00Z,00000200,01000000,0001.19,0001.06,0000.70,0000.73,0000.28,0000.06,0000.66,0000.52,0000.40,17.6,24.1,01.0,00.7,0674.0,31.0
2021-05-07T05:55:00Z,00000200,01000000,0001.53,0000.71,0000.62,0000.38,0000.23,-000.22,0001.01,0000.83,0000.61,17.6,24.1,01.0,00.7,0673.9,31.0
2021-05-07T05:56:00Z,00000200,01000000,0001.03,0001.25,0000.49,0000.19,0000.29,0000.30,0000.09,0000.56,0000.50,17.7,24.1,01.0,00.7,0674.0,31.0
2021-05-07T05:57:00Z,00000200,41000000,,,,,,,0000.06,-000.11,-000.17,17.7,24.2,00.9,00.6,0673.9,31.0
2021-05-07T05:58:00Z,00000200,61000000,,,,,,,0000.19,0000.21,0000.16,17.5,24.3,00.9,00.6,0673.0,31.0
2021-05-07T05:59:00Z,00000200,21000000,,,,,,,0000.19,-000.07,-000.16,17.5,24.4,00.9,00.6,0673.0,31.0
